Flag for U.S.A. Weather past 2 weeks in Huntsville, Alabama, U.S.A.

Now
87 °F

More clouds than sun.


Feels Like: 91 °F
Forecast: 69 / 84 °F
Wind: 13 mph from West

Location: Huntsville International / Jones Field

Current Time: Jun 30, 2015 at 3:16:44 PM

Latest Report: Jun 30, 2015 at 2:53 PM


Visibility: 10 mi

Pressure: 29.92 "Hg

Humidity: 53%

Dew point: 68 °F

Location of HuntsvilleLocation

Historic Weather in Huntsville — Graph

°F

Huntsville temperature yesterday

Maximum temperature yesterday: 90 °F (at 2:53 PM)
Minimum temperature yesterday: 66 °F (at 5:53 AM)
Average temperature yesterday: 78 °F

Past Weeks' High & Low Weather Summary

 TemperatureHumidityPressure
High98 °F (Jun 23, 3:53 PM)90% (Jun 24, 1:53 AM)30.15 "Hg (Jun 24, 1:53 AM)
Low63 °F (Jun 28, 4:53 AM)30% (Jun 28, 2:53 PM)29.85 "Hg (Jun 27, 3:53 AM)
Average83 °F64%30.01 "Hg
* Reported Jun 15 1:53 PM — Jun 30 1:53 PM, Huntsville, Weather by CustomWeather, © 2015

Note: Actual official high and low records may vary slightly from our data, if they occured in-between our weather recording intervals... More about our weather records

Advertising

Huntsville weather history for previous 24 hours

 ConditionsComfort  
Time TempWeatherWind HumidityBarometerVisibility
1:53 PM
Tue, Jun 30
87 °FPassing clouds.16 mph51%29.93 "Hg10 mi
12:53 PM83 °FBroken clouds.9 mph68%29.97 "Hg10 mi
12:00 PM78 °FThunderstorms. Mostly cloudy.10 mph82%30.01 "Hg8 mi
11:00 AM82 °FMore clouds than sun.12 mph67%30.01 "Hg10 mi
9:53 AM81 °FCloudy.12 mph69%29.98 "Hg10 mi
8:53 AM79 °FBroken clouds.7 mph67%29.96 "Hg10 mi
7:53 AM78 °FBroken clouds.3 mph74%29.94 "Hg10 mi
6:53 AM77 °FMore clouds than sun.7 mph74%29.93 "Hg10 mi
5:53 AM75 °FOvercast.7 mph79%29.92 "Hg10 mi
4:53 AM76 °FClear.10 mph77%29.92 "Hg10 mi
3:53 AM75 °FLight rain. Passing clouds.13 mph79%29.89 "Hg10 mi
2:53 AM75 °FPassing clouds.7 mph76%29.90 "Hg10 mi
1:53 AM74 °FPassing clouds.5 mph76%29.93 "Hg10 mi
12:53 AM74 °FClear.5 mph76%29.93 "Hg10 mi
11:53 PM
Mon, Jun 29
73 °FPassing clouds.5 mph79%29.94 "Hg10 mi
10:53 PM78 °FPassing clouds.3 mph62%29.93 "Hg10 mi
9:53 PM78 °FPassing clouds.3 mph62%29.90 "Hg10 mi
8:53 PM78 °FPassing clouds.6 mph64%29.89 "Hg10 mi
7:53 PM82 °FPassing clouds.6 mph56%29.88 "Hg10 mi
6:53 PM87 °FPassing clouds.12 mph43%29.88 "Hg10 mi
5:53 PM88 °FScattered clouds.12 mph45%29.89 "Hg10 mi
4:53 PM87 °FScattered clouds.10 mph45%29.89 "Hg10 mi
3:53 PM89 °FScattered clouds.14 mph45%29.90 "Hg10 mi
Weather by CustomWeather, © 2015

See weather overviewHow to use our weather pages